7 * 24
多渠道服务支持
STARLINK-37149(NORAD编号68309)是SpaceX星链星座中的一颗互联网通信卫星,归属星链 Gen2 卫星系列,运行于近地轨道。 作为星链网络的组成部分,其核心任务是为全球范围提供低延迟高速卫星互联网接入服务,支持消费端互联网连接、偏远地区通信保障以及特殊场景网络覆盖等应用。 目前公开轨道数据显示,该卫星维持在预定近地轨道高度运行,SpaceX通过星链卫星群的自主轨道调整能力,持续管控星座运行,保障太空运行安全与网络服务稳定性。
美国
(US)
| 数据来源 | 国际轨道数据 |
| 星历时间: | 2026-04-14T11:23:24+0800 16小时前 查看轨道信息 |
| 半长轴: | 6721.95km |
| 偏心率: | 0.0001594 |
| 轨道倾角: | 97.286° |
| 近地点辐角 | 62.110° |
| 升交点赤经 | 228.314° |
| 平近点角 | 298.033° |
| 近地点: | 342.741km |
| 远地点: | 344.885km |
| 周期: | 91.412分钟 |
| 每日圈数: | 15.752878 |